EW8927 Weather Reports


time (UTC)temp
F
wind
direction
speed
knots
gust
knots
rain 1hr
in
rain 24hr
in
rain mn
in
humidity
%
barometer
mb
20260506233006 86 132 3.5 10.4 0.00 0.00 0.00 17 1009.4
20260506231504 88 290 0.9 6.1 0.00 0.00 0.00 16 1009.6
20260506230000 87 279 2.6 9.6 0.00 0.00 0.00 16 1010.0
20260506224559 86 49 2.6 11.3 0.00 0.00 0.00 17 1010.0
20260506223056 87 100 2.6 10.4 0.00 0.00 0.00 17 1010.2
20260506221558 85 58 5.2 10.4 0.00 0.00 0.00 18 1010.4
20260506220053 86 56 6.1 13.9 0.00 0.00 0.00 17 1010.6
20260506214552 85 95 3.5 13.9 0.00 0.00 0.00 18 1010.8
20260506213048 85 102 7.0 13.0 0.00 0.00 0.00 18 1011.0
20260506211551 85 83 7.8 16.5 0.00 0.00 0.00 18 1011.1
20260506210045 84 65 10.4 15.6 0.00 0.00 0.00 19 1011.3
20260506204544 85 90 7.0 16.5 0.00 0.00 0.00 19 1011.4
20260506203042 84 57 6.1 12.2 0.00 0.00 0.00 20 1011.5
20260506201540 83 83 7.0 13.0 0.00 0.00 0.00 21 1011.6
20260506200043 83 35 7.0 12.2 0.00 0.00 0.00 22 1011.9
20260506194539 81 61 2.6 9.6 0.00 0.00 0.00 24 1012.1
20260506193033 82 98 5.2 10.4 0.00 0.00 0.00 23 1012.4
20260506191530 79 184 0.9 8.7 0.00 0.00 0.00 25 1012.8
20260506190027 80 306 1.7 5.2 0.00 0.00 0.00 25 1013.0
20260506184523 78 86 4.3 8.7 0.00 0.00 0.00 26 1013.1
20260506183021 79 270 1.7 5.2 0.00 0.00 0.00 26 1013.3
20260506181519 75 103 1.7 6.1 0.00 0.00 0.00 29 1013.5
20260506180018 73 72 0.9 3.5 0.00 0.00 0.00 31 1013.7
20260506174510 72 14 2.6 7.0 0.00 0.00 0.00 32 1013.8
20260506173006 72 105 1.7 7.0 0.00 0.00 0.00 32 1013.8
20260506171502 71 73 1.7 4.3 0.00 0.00 0.00 33 1013.7
20260506170108 72 277 1.7 5.2 0.00 0.00 0.00 32 1013.8
20260506164612 70 334 0.9 3.5 0.00 0.00 0.00 35 1014.0
20260506163055 70 292 0.9 3.5 0.00 0.00 0.00 36 1014.0
20260506161545 69 294 1.7 3.5 0.00 0.00 0.00 37 1014.0
20260506160047 68 265 2.6 6.1 0.00 0.00 0.00 37 1014.0
20260506154547 66 221 2.6 5.2 0.00 0.00 0.00 41 1014.0
20260506153035 64 227 0.9 3.5 0.00 0.00 0.00 43 1013.8
20260506151533 63 286 0.9 3.5 0.00 0.00 0.00 44 1014.0
20260506150027 61 282 1.7 3.5 0.00 0.00 0.00 47 1013.9
20260506144527 60 360 0.0 2.6 0.00 0.00 0.00 50 1013.9
20260506143022 57 26 1.7 3.5 0.00 0.00 0.00 53 1013.8
20260506141515 56 29 1.7 3.5 0.00 0.00 0.00 55 1013.6
20260506140011 56 360 0.0 0.9 0.00 0.00 0.00 55 1013.4
20260506134506 54 302 0.0 0.9 0.00 0.00 0.00 59 1013.3
20260506133001 53 279 0.0 0.0 0.00 0.00 0.00 60 1013.0
20260506131558 51 279 0.0 1.7 0.00 0.00 0.00 64 1012.9
20260506130055 51 279 0.0 1.7 0.00 0.00 0.00 63 1012.6
20260506124551 51 279 0.0 0.9 0.00 0.00 0.00 63 1012.5
20260506123048 52 277 0.9 2.6 0.00 0.00 0.00 61 1012.2
20260506121555 53 301 0.0 2.6 0.00 0.00 0.00 60 1012.2
20260506120107 54 223 1.7 7.0 0.00 0.00 0.00 58 1012.1
20260506114544 55 360 2.6 7.0 0.00 0.00 0.00 58 1012.0
20260506113038 55 360 2.6 6.1 0.00 0.00 0.00 56 1011.9
20260506111539 55 225 2.6 7.0 0.00 0.00 0.00 55 1011.8
20260506110035 55 221 4.3 7.8 0.00 0.00 0.00 56 1011.7
20260506104534 55 190 0.0 7.0 0.00 0.00 0.00 56 1011.7
20260506103035 55 198 0.9 4.3 0.00 0.00 0.00 56 1011.6
20260506101530 55 199 1.7 5.2 0.00 0.00 0.00 57 1011.4
20260506100033 55 234 2.6 5.2 0.00 0.00 0.00 56 1011.4
20260506094533 56 360 2.6 5.2 0.00 0.00 0.00 55 1011.2
20260506093041 56 360 3.5 6.1 0.00 0.00 0.00 55 1011.2
20260506091525 56 217 3.5 9.6 0.00 0.00 0.00 55 1011.1
20260506090023 56 191 3.5 8.7 0.00 0.00 0.00 55 1011.1
20260506084521 56 202 5.2 8.7 0.00 0.00 0.00 54 1011.1
20260506083019 57 232 3.5 7.8 0.00 0.00 0.00 53 1011.1
20260506081516 57 360 2.6 7.8 0.00 0.00 0.00 52 1011.2
20260506073009 59 196 5.2 10.4 0.00 0.00 0.00 49 1010.9
20260506071508 59 360 7.0 10.4 0.00 0.00 0.00 48 1010.8
20260506061603 59 212 6.1 10.4 0.00 0.00 0.00 48 1010.1
20260506050113 60 189 6.1 12.2 0.00 0.00 0.00 47 1009.3
20260506044559 60 190 6.1 12.2 0.00 0.00 0.00 47 1009.2
20260506043051 61 212 6.1 10.4 0.00 0.00 0.00 46 1009.1
20260506041553 61 208 5.2 10.4 0.00 0.00 0.00 46 1008.8
20260506040047 62 189 4.3 12.2 0.00 0.00 0.00 45 1008.7
20260506034545 63 227 5.2 13.9 0.00 0.00 0.00 43 1008.3
20260506033043 63 196 5.2 13.0 0.00 0.00 0.00 42 1007.9
20260506031555 64 205 6.1 13.0 0.00 0.00 0.00 41 1007.7
20260506030057 65 201 6.1 14.8 0.00 0.00 0.00 39 1007.1
20260506024541 67 360 7.0 14.8 0.00 0.00 0.00 38 1006.8
20260506023041 68 360 3.5 8.7 0.00 0.00 0.00 34 1006.6
20260506021540 69 202 5.2 13.0 0.00 0.00 0.00 33 1006.4
20260506020039 70 175 4.3 8.7 0.00 0.00 0.00 34 1006.3
20260506014539 70 192 4.3 8.7 0.00 0.00 0.00 34 1006.2
20260506013044 71 232 6.1 10.4 0.00 0.00 0.00 32 1006.0
20260506011538 72 136 4.3 10.4 0.00 0.00 0.00 30 1006.0
20260506010037 73 269 1.7 5.2 0.00 0.00 0.00 29 1006.0
20260506004604 73 292 2.6 6.1 0.00 0.00 0.00 28 1005.8
20260506003036 74 211 2.6 5.2 0.00 0.00 0.00 28 1005.7
20260506001535 74 133 3.5 7.0 0.00 0.00 0.00 27 1005.6
20260506000034 75 308 0.9 6.1 0.00 0.00 0.00 27 1005.7
20260505234603 75 287 4.3 7.0 0.00 0.00 0.00 27 1005.7